User: anonymous   Login
Location: Unspecified
(0.0000°N, 0.0000°E)
Time: 06:42:51
(UTC+01:00)
Language:

Cosmos 773 Rocket - Orbit

View from above orbital plane
View from above orbital plane
View from above satellite
View from above satellite

Ground track
Ground track

The orbit data is extracted from the following two-line orbital elements,

1 08344U 75094B   14331.75458034  .00000317  00000-0  11110-3 0  6267
2 08344 074.0594 043.5399 0021543 182.0682 320.3298 14.38850338 51573
Epoch (UTC): 27 November 2014 18:06:35
Eccentricity: 0.0021543
inclination: 74.0594°
perigee height: 747 km
apogee height: 777 km
right ascension of ascending node: 43.5399°
argument of perigee: 182.0682°
revolutions per day: 14.38850338
mean anomaly at epoch: 320.3298°
orbit number at epoch: 5157

The dashed part of the orbit path shows where the satellite is in the earth's shadow,  

DLR